Powrót do katalogu

MEASAT 2

AktywnyŁącznośćGEO
NORAD 24653·PAYLOAD·🇲🇾 Malaysia

Wystrzelony Nov 13, 1996 z Guiana Space Centre

Loading…

TLE

ŚwieżeSource: Space-Track

Epoka: Sep 14, 2026, 13:50 UTC

1 24653U 96063B   26257.57648769 -.00000076  00000-0  00000-0 0  9992
2 24653  12.3901  28.2792 0006180 196.6520 344.1231  0.99659868109178

Śledź MEASAT 2 w czasie rzeczywistym z AllMySat

Download on the App Store